Regional Weather Roundup
Issued by NWS

Home | Current Version | Previous Version | Text Only | Print | Product List | Glossary On
Versions: 1 2 3 4 5 6 7 8 9 10 11 12 13 14 15 16 17 18 19 20 21 22 23 24 25 26 27 28 29 30 31 32 33 34 35 36 37 38 39 40 41 42 43 44 45 46 47 48 49 50
000
ASUS43 KMPX 181001
RWRMN
WEATHER ROUNDUP FOR MINNESOTA
NATIONAL WEATHER SERVICE TWIN CITIES/CHANHASSEN MN
400 AM CST WED JAN 18 2017


NOTE: "FAIR" INDICATES FEW OR NO CLOUDS BELOW 12,000 FEET WITH NO
SIGNIFICANT WEATHER AND/OR OBSTRUCTIONS TO VISIBILITY. N/A MEANS
CURRENT SKY AND/OR WEATHER CONDITIONS ARE NOT AVAILABLE.

MNZ060>063-068>070-181100-
   Twin Cities Metro

CITY           SKY/WX    TMP DP  RH WIND       PRES   REMARKS
TWIN CITIES    CLOUDY    28  23  81 S8        29.95F WCI  20
ST PAUL        CLOUDY    27  25  92 SE8       29.97F WCI  19
CRYSTAL        CLOUDY    27  22  81 S9        29.93F WCI  18
BLAINE         CLOUDY    28  28 100 S9        29.93F WCI  20
LAKEVILLE      CLOUDY    25  25 100 S8        29.96F FOG     WCI  16
EDEN PRAIRIE   CLOUDY    27  23  85 S13       29.93F FOG     WCI  16
SOUTH ST PAUL  CLOUDY    27  26  94 S6        29.96F WCI  20
LAKE ELMO      FAIR      28  27  93 S9        29.96F WCI  20
$$
MNZ001>005-007-008-013>017-022>024-027-028-181100-
   Northwest Minnesota

CITY           SKY/WX    TMP DP  RH WIND       PRES   REMARKS
BEMIDJI        CLOUDY    27  19  72 S8        29.70S WCI  19
HALLOCK        CLOUDY    18  16  93 S9        29.64R WCI   6
ROSEAU         CLOUDY    23  18  80 SW13      29.64R WCI  11
WARROAD        CLOUDY    23  18  80 SW12G17   29.65R WCI  12
THIEF RVR FALL CLOUDY    22  17  81 SW18G26   29.68S WCI   7
CROOKSTON      CLOUDY    21  18  86 S14       29.72S WCI   8
FOSSTON        CLOUDY    21  18  86 S18       29.72F WCI   6
DETROIT LAKES  CLOUDY    28  23  80 SW7       29.77R WCI  21
MOORHEAD       CLOUDY    19  16  86 S8        29.78R WCI   9
PARK RAPIDS    CLOUDY    19  13  77 S7        29.75F WCI  10
MAHNOMEN       FAIR      24  19  83 S13       29.75R WCI  12
$$
MNZ006-009>011-018-025>026-181100-
   North Central Minnesota

CITY           SKY/WX    TMP DP  RH WIND       PRES   REMARKS
BAUDETTE       CLOUDY    23  16  74 SW8       29.64S WCI  14
FLAG ISLAND    CLOUDY    21  16  79 SW12      29.63R WCI   9
INTL FALLS     CLOUDY    25  17  72 SW9       29.66R WCI  15
WASKISH        CLOUDY    27  19  74 S3        29.66F
BIG FORK       CLOUDY    27  19  74 SW12      29.71R WCI  16
LONGVILLE      CLOUDY    21  18  86 S7        29.76S WCI  13
GRAND RAPIDS   CLOUDY    22  18  85 S10       29.77F WCI  11
CRANE LAKE     CLOUDY    25  18  74 S3        29.71F
ORR            CLOUDY    25  16  68 CALM      29.68S
COOK           CLOUDY    27  18  69 SW8       29.71S WCI  18
WALKER         FAIR      24  19  78 SW9       29.74R WCI  15
$$
MNZ012-019>021-037-181100-
   Northeast Minnesota

CITY           SKY/WX    TMP DP  RH WIND       PRES   REMARKS
DULUTH         CLOUDY    24  22  91 SW16      29.78F WCI  11
ELY            CLOUDY    25  19  80 SW12      29.71R WCI  14
HIBBING        CLOUDY    20  18  92 S5        29.75S WCI  13
EVELETH        CLOUDY    24  19  82 SW13      29.76S WCI  12
DULUTH HARBOR  CLOUDY    27  23  86 SW13      29.84F WCI  16
TWO HARBORS    CLOUDY    25  19  80 W7        29.78S HAZE    WCI  17
SILVER BAY     CLEAR     19  18  93 SW5       29.76F WCI  13
GRAND MARAIS     N/A     30  24  78 W9        29.78S WCI  22
G MARAIS ARPRT CLOUDY    21  18  86 MISG      29.72S
$$
MNZ029>031-032-039>041-046>048-054>057-064-181100-
   West Central Minnesota

CITY           SKY/WX    TMP DP  RH WIND       PRES   REMARKS
FERGUS FALLS   CLOUDY    21  19  93 S10       29.83F WCI  10
WHEATON        CLOUDY    32  27  80 S9        29.81F WCI  24
MORRIS         CLOUDY    19  19 100 S10       29.82F WCI   8
ALEXANDRIA     CLOUDY    24  22  91 SW10      29.82F WCI  14
ELBOW LAKE     FAIR      20  19  94 S14       29.80F FOG     WCI   7
WADENA         CLOUDY    25  19  80 SW7       29.77F WCI  17
GLENWOOD       CLOUDY    21  19  93 S14       29.83F WCI   8
APPLETON       CLOUDY    27  23  86 S9        29.85F WCI  17
ORTONVILLE     CLOUDY    27  21  80 CALM      29.83F
MADISON        CLOUDY    28  25  86 S8        29.85F WCI  20
WILLMAR        FAIR      16  16 100 SE6       29.89F WCI   7
$$
MNZ033>034-036-042>043-049>051-058-059-181100-
   Central Minnesota

CITY           SKY/WX    TMP DP  RH WIND       PRES   REMARKS
ST CLOUD       CLOUDY    22  21  96 S8        29.87F WCI  12
SAUK CENTRE    FAIR      21  20  93 S8        29.85S WCI  12
PAYNESVILLE    CLOUDY    23  23 100 S6        29.87F WCI  16
AITKIN         CLOUDY    25  18  74 S9        29.80F WCI  15
PINE RIVER     CLOUDY    19  16  86 S6        29.82S WCI  11
BRAINERD       CLOUDY    22  19  89 S10       29.81F WCI  11
STAPLES        CLOUDY    19  18  93 S6        29.79F WCI  11
LONG PRAIRIE   FAIR      21  19  93 SE8       29.84S WCI  12
LITTLE FALLS   CLOUDY    19  16  86 S7        29.85F WCI  10
LITCHFIELD     CLOUDY    25  21  86 S3        29.89F
BUFFALO        CLOUDY    25  23  89 S6        29.92F WCI  18
MAPLE LAKE     CLOUDY    25  24  96 S6        29.91S WCI  18
HUTCHINSON     CLOUDY    24  23  97 S5        29.92F WCI  18
$$
MNZ037-044-045-052-053-181100-
   East Central Minnesota

CITY           SKY/WX    TMP DP  RH WIND       PRES   REMARKS
PRINCETON      CLOUDY    25  25 100 S7        29.89F WCI  17
MORA           CLOUDY    27  27 100 S7        29.90F WCI  19
CAMBRIDGE      CLOUDY    28  23  80 S8        29.89F HAZE    WCI  20
RUSH CITY      CLOUDY    27  25  93 S9        29.91F FOG     WCI  17
MOOSE LAKE     CLOUDY    27  25  93 S13       29.83F FOG     WCI  16
HINCKLEY       CLOUDY    28  28 100 S9        29.88F WCI  20
CLOQUET        CLOUDY    25  21  86 S10G21    29.80F FOG     WCI  15
MCGREGOR       CLOUDY    25  23  93 S12G17    29.80F WCI  14
$$
MNZ071>073-080-081-089-090-097-098-181100-
   Southwest Minnesota

CITY           SKY/WX    TMP DP  RH WIND       PRES   REMARKS
MONTEVIDEO     CLOUDY    25  25 100 SW8       29.88F WCI  16
GRANITE FALLS  CLOUDY    24  22  93 S12       29.91S WCI  13
CANBY            N/A     33  27  77 SW12G20   29.86F WCI  24
MARSHALL       CLOUDY    27  25  92 SW6G16    29.90  WCI  20
REDWOOD FALLS  CLOUDY    22  18  85 S6        29.92S WCI  14
OLIVIA         CLOUDY    23  21  93 S6        29.90S WCI  16
PIPESTONE      CLOUDY    28  27  93 SW9       29.91R WCI  20
WINDOM         CLOUDY    28  27  93 S13       29.92F WCI  18
WORTHINGTON    CLOUDY    29  26  89 S20       29.92F WCI  16
JACKSON        CLOUDY    28  27  93 S10       29.95F WCI  19
TRACY          CLOUDY    31  28  87 SW13      29.91R WCI  21
SLAYTON        CLOUDY    27  26  95 S15       29.91S WCI  15
$$
MNZ065>067-074>077-082>085-091>093-181100-
   South Central Minnesota

CITY           SKY/WX    TMP DP  RH WIND       PRES   REMARKS
MANKATO        CLEAR     27  26  96 S10       29.97S FOG     WCI  17
NEW ULM        CLOUDY    23  21  93 S7        29.94S WCI  15
ST JAMES       CLOUDY    28  27  93 S12       29.96R WCI  18
FAIRMONT       CLOUDY    28  26  92 S18       29.98F WCI  15
GLENCOE        CLOUDY    26  26  99 S7        29.92F FOG     WCI  18
FARIBAULT        N/A     27  25  93 S7        29.98F FOG     WCI  19
OWATONNA       CLOUDY    27  25  93 S14       29.98F FOG     WCI  15
WASECA         CLOUDY    28  27  93 S13       30.00F FOG     WCI  18
ALBERT LEA     CLOUDY    28  27  93 S5        30.01S FOG     WCI  23
$$
MNZ078>079-086>088-094>096-181100-
   Southeast Minnesota

CITY           SKY/WX    TMP DP  RH WIND       PRES   REMARKS
ROCHESTER      CLOUDY    26  26 100 SW15      30.00S FOG     WCI  14
RED WING       CLOUDY    28  25  86 S6        29.99S WCI  22
STANTON        CLOUDY    27  24  89 S8        29.97S WCI  19
DODGE CENTER   CLOUDY    27  25  93 SW7       29.99S FOG     WCI  19
WINONA         CLOUDY    32  30  93 S5        30.05R WCI  27
AUSTIN         CLOUDY    27  27 100 S13       30.02S FOG     WCI  16
PRESTON        CLOUDY    28  27  96 SW10      30.03R FOG     WCI  18
$$
ABBREVIATIONS USED IN REMARKS
   TC - TEMPERATURES IN CELSIUS
  WCI - WIND CHILL INDEX
   HX - HEAT INDEX
  VSB - VISIBILITY
$$




USA.gov is the U.S. government's official web portal to all federal, state and local government web resources and services.